Temp_Advection
nan nan nan nan nan nan nan nan nan nan nan nan nan nan nan nan nan nan nan nan nan nan nan nan nan nan nan nan nan nan nan nan nan nan nan nan nan nan nan nan nan nan
nan -0 0 0 0 0 0 0 0 0 0 0 0 -0 -0 -0 -0 -0 -0 -0 -0 -0 -0 -0 -0 -0 -0 -0 -0 -0 0 0 0 -0 -0 -0 -0 -0 -0 -0 -0 nan
nan 0 0 0 0 0 0 0 0 0 0 0 0 0 0 -0 -0 -0 -0 0 0 -0 -0 -0 -0 -0 -0 -0 -0 -0 -0 -0 -0 -0 -0 -0 -0 -0 -0 -0 -0 nan
nan 0 0 1 0 0 0 0 0 0 0 0 0 0 0 0 0 -0 -0 -0 0 0 0 -0 -0 -0 -0 -0 -0 -0 -0 -0 -0 -0 -0 -0 -0 -0 -0 -0 -0 nan
nan 0 1 0 0 0 0 0 0 0 0 0 0 0 0 0 0 0 0 0 0 0 0 0 0 0 -0 -0 -0 -0 0 0 -0 -0 0 -0 -0 -0 -0 -0 -0 nan
nan 1 1 0 0 0 0 0 0 0 0 0 0 0 0 0 0 0 0 0 0 0 0 0 0 0 0 0 0 0 0 0 0 0 0 0 0 -0 -0 -0 -0 nan
nan 1 0 0 0 0 0 0 0 0 0 0 0 0 0 0 0 0 0 0 0 0 0 0 -0 -0 0 0 0 0 0 0 0 0 0 0 0 0 0 0 0 nan
nan 0 0 0 0 0 0 0 0 0 0 0 0 0 0 0 0 0 0 0 0 0 -0 -0 -0 -0 -0 -0 -0 0 0 0 0 -0 -0 0 0 0 0 0 0 nan
nan 0 0 -0 0 0 0 0 0 0 0 0 0 0 0 0 0 0 0 0 0 0 -0 -0 -0 -0 -0 -0 -0 0 0 -0 -0 -0 -0 -0 0 0 -0 -0 0 nan
nan 0 -0 -0 0 0 0 0 0 0 0 0 0 0 0 0 0 0 0 0 0 0 -0 -0 -0 0 0 -0 0 0 0 0 0 0 -0 -0 -0 0 -0 -0 -0 nan
nan -0 -0 0 0 -0 0 0 0 0 0 0 -0 -0 -0 0 0 0 0 0 0 0 0 -0 -0 0 0 0 0 0 0 0 0 -0 0 0 0 0 -0 -0 -0 nan
nan 0 0 0 -0 -0 0 0 0 0 0 0 0 -0 -0 0 1 1 0 0 0 1 1 0 -0 -0 0 0 -0 0 0 0 0 0 -0 0 0 0 0 -0 0 nan
nan 0 0 0 0 0 0 0 0 0 0 1 0 -0 0 1 1 1 0 0 0 1 1 0 -1 -1 -0 0 0 0 0 0 0 0 -0 0 0 0 0 0 0 nan
nan 0 0 0 0 0 1 1 1 0 1 1 1 0 0 1 1 1 0 0 0 0 1 0 -0 -1 -0 -0 0 0 0 0 0 0 -0 0 0 0 0 0 0 nan
nan 0 1 0 0 0 1 1 1 0 1 1 0 -0 0 0 0 0 0 -0 0 1 1 0 -0 -1 -0 -0 0 0 0 0 0 0 -0 -0 0 0 0 0 0 nan
nan 0 0 0 0 0 0 0 0 0 0 0 -0 -0 -0 0 0 0 -0 0 0 0 0 -0 -0 -0 0 0 0 0 0 0 0 0 -0 -0 0 0 0 0 0 nan
nan 0 0 -0 0 0 -0 -0 -0 -0 -0 -0 -0 -0 0 0 0 0 -0 0 0 0 -0 -0 -0 0 0 0 -0 -0 0 0 0 0 0 0 0 0 0 -0 -0 nan
nan -0 -0 -0 -0 -0 -0 -0 -0 -0 -0 -0 -0 0 0 0 0 0 0 0 0 0 0 -0 -0 -0 0 0 -0 -0 0 0 0 0 0 0 0 0 0 -0 -0 nan
nan 0 0 0 0 0 0 0 0 0 0 0 0 0 0 0 0 -0 0 0 0 0 0 0 0 0 0 -0 -0 -0 -0 0 -0 -0 -0 0 0 0 0 0 0 nan
nan 0 0 0 0 0 0 0 0 0 0 0 0 0 0 -0 -0 -0 -0 -0 0 0 0 0 0 0 0 -0 -0 -0 -0 -0 -0 -0 -0 -0 0 0 0 0 -0 nan
nan 0 0 0 0 0 0 0 0 0 -0 0 0 -0 0 0 -0 0 0 0 0 0 0 0 0 0 0 0 -0 -0 -0 -0 -0 -0 -0 -0 -0 0 0 -0 -0 nan
nan 0 0 0 0 0 0 -0 -0 -0 -0 -0 -0 -0 -0 -0 0 0 0 0 0 0 0 0 0 0 0 0 0 -0 -0 -0 -0 -0 -0 -0 -0 0 0 0 0 nan
nan 0 0 0 0 0 0 0 0 -0 -0 -0 -0 -0 -0 -0 -0 -0 -0 0 -0 -0 -0 0 0 0 0 0 0 -0 -0 -0 -0 -0 -0 -0 -0 0 0 0 0 nan
nan 0 0 0 0 0 0 0 0 -0 -0 -0 -0 0 -0 -0 -0 -0 -0 -0 -0 -0 0 0 0 0 -0 -0 -0 -0 -0 -0 -0 -0 -0 -0 -0 -0 -0 -0 0 nan
nan 0 0 0 0 0 0 0 0 -0 0 0 0 0 0 -0 -0 -0 -0 -0 -0 -0 -0 0 0 0 -0 -0 -0 -0 0 -0 -0 -0 -0 -0 -0 -0 0 0 0 nan
nan nan nan nan nan nan nan nan nan nan nan nan nan nan nan nan nan nan nan nan nan nan nan nan nan nan nan nan nan nan nan nan nan nan nan nan nan nan nan nan nan nan
Wind_Speed
19 17 18 17 15 13 12 11 11 11 11 10 10 9 9 9 9 9 9 9 9 8 8 8 8 7 7 8 8 8 8 8 8 8 8 7 6 5 5 5 4 4
20 19 19 18 17 15 14 14 13 12 12 11 11 11 10 10 9 9 9 9 10 9 9 8 8 7 7 7 7 7 7 8 8 9 9 8 7 7 7 6 4 4
22 20 19 18 18 17 16 16 15 13 12 12 12 11 10 9 9 8 8 7 7 7 7 7 6 6 5 5 5 5 5 6 7 8 8 8 8 8 7 7 6 6
23 20 18 16 16 17 17 16 16 15 14 13 11 10 9 8 7 7 6 5 4 3 3 4 4 4 3 3 3 2 2 3 4 4 6 6 7 7 7 7 6 5
23 21 18 14 14 16 17 17 17 16 14 12 10 9 9 8 7 6 5 4 4 3 2 2 2 2 2 2 1 1 1 1 0 1 1 3 4 4 4 5 5 4
24 23 20 14 13 15 16 16 16 15 14 11 9 7 6 5 5 4 4 4 4 4 4 4 3 3 2 2 3 2 2 2 2 2 2 2 2 2 2 3 3 3
25 25 21 15 13 14 14 14 14 14 12 9 7 6 5 5 4 3 3 3 4 4 4 5 5 5 4 4 4 3 3 3 4 4 4 4 4 3 3 3 2 2
23 23 21 16 15 15 13 14 14 13 11 10 9 8 8 7 6 6 6 6 7 6 6 6 6 6 5 5 4 5 4 4 4 4 5 5 5 5 5 5 4 3
20 19 18 17 18 16 14 15 14 13 13 12 12 11 10 9 9 9 10 10 10 9 9 9 8 8 7 7 6 5 6 5 5 5 5 5 4 4 5 5 5 5
20 18 19 20 21 18 17 17 16 15 15 14 14 14 12 12 12 13 15 15 13 13 13 12 11 11 11 10 8 7 7 7 7 8 7 6 5 4 5 5 5 5
19 18 21 23 21 20 19 19 17 17 16 16 17 17 16 17 17 19 20 21 19 17 17 16 15 15 14 13 12 11 10 10 9 9 10 9 9 8 7 7 6 6
18 19 23 22 20 19 20 20 19 18 18 20 21 21 21 21 21 22 22 23 23 22 22 22 19 18 18 17 16 15 15 14 14 13 13 13 13 12 11 10 9 8
18 21 22 21 19 19 19 20 20 21 22 22 23 24 24 23 23 23 22 22 23 23 25 24 22 20 21 20 19 19 19 18 18 18 17 17 16 16 15 14 13 12
18 19 19 18 18 20 21 21 22 23 23 23 24 25 24 24 24 23 22 23 23 24 24 22 21 21 22 22 22 22 22 21 20 20 20 20 20 19 18 17 16 15
15 17 17 17 18 19 20 21 21 22 22 23 24 23 23 23 23 22 22 24 24 24 23 21 22 23 24 24 25 25 25 25 24 23 22 21 21 21 20 20 19 18
8 10 11 11 10 10 10 11 12 13 14 15 15 14 14 15 15 15 16 18 18 17 17 18 19 20 21 21 21 21 22 23 23 22 21 20 20 20 21 22 21 21
8 9 10 9 8 7 7 6 6 7 7 7 6 6 7 7 8 8 9 10 10 10 9 9 10 12 13 14 15 17 19 20 21 21 20 19 19 20 21 20 21 22
8 8 8 7 7 7 6 6 6 6 6 5 5 5 5 5 5 6 7 8 9 10 8 7 7 8 9 10 10 13 16 17 18 19 19 19 20 20 20 20 21 21
5 5 5 4 4 5 4 4 4 4 5 5 5 5 6 6 7 7 8 9 9 10 10 10 9 8 9 9 8 9 11 12 12 13 15 16 16 16 17 19 20 21
5 5 4 4 5 5 5 5 5 5 5 6 6 7 8 9 9 10 11 11 11 11 11 11 11 10 9 9 9 9 10 10 10 10 11 12 13 13 14 14 15 17
7 6 6 6 6 6 6 7 7 8 8 9 9 10 11 11 12 12 13 13 13 13 12 12 11 10 9 9 10 11 11 11 11 11 10 10 10 10 10 10 10 12
8 7 7 7 7 6 6 6 7 8 9 9 10 10 10 10 10 11 11 11 12 12 12 12 11 10 10 10 11 11 12 13 13 11 9 9 9 9 8 7 8 10
8 8 8 8 7 7 6 7 8 9 10 11 10 10 10 10 10 11 12 13 13 13 12 11 11 10 10 10 11 12 13 13 12 11 10 10 9 8 6 6 7 10
9 9 9 9 9 8 8 9 9 10 11 12 12 12 12 13 14 14 16 16 16 16 14 13 11 10 10 10 10 11 12 12 12 11 11 10 8 7 6 7 9 11
9 9 10 10 10 10 10 11 11 12 13 14 15 15 15 15 16 16 16 16 16 17 17 15 13 12 11 10 10 10 10 10 10 10 9 8 8 7 7 9 11 13
10 9 9 9 10 11 12 13 14 14 15 15 16 16 16 16 16 16 17 18 19 19 18 16 14 13 12 12 11 10 9 9 9 9 9 8 8 8 9 11 13 14
Wind_Direction
227 221 206 196 185 176 173 165 161 159 155 151 148 146 144 139 134 128 123 119 118 117 110 104 100 94 87 83 79 76 74 72 72 73 70 64 58 53 52 51 45 36
224 217 204 195 185 180 177 168 163 165 162 157 154 151 148 143 137 132 127 122 120 119 115 110 106 100 92 86 82 80 78 76 74 76 79 77 70 66 65 65 65 64
214 207 201 196 190 186 182 174 171 173 171 168 165 160 155 150 145 142 138 133 127 123 122 120 118 114 105 93 87 84 81 79 78 81 84 84 80 76 75 72 72 77
208 204 200 200 198 195 192 185 181 182 182 180 176 171 168 162 159 157 151 151 153 149 140 132 132 131 121 110 103 97 89 79 78 84 90 94 93 88 87 85 81 84
210 208 203 202 204 203 203 197 193 193 191 188 184 182 180 174 172 171 169 175 184 196 210 202 180 162 146 148 167 179 186 185 122 127 115 113 114 108 102 101 99 98
214 211 204 203 207 209 210 205 201 201 200 198 197 197 196 192 191 190 192 201 205 212 226 235 236 229 218 215 224 233 234 245 251 243 246 235 171 149 143 135 127 122
216 212 204 200 204 209 214 211 207 206 205 206 213 223 237 242 247 252 251 255 254 251 252 253 254 255 257 257 256 256 256 262 268 264 260 258 245 230 218 207 194 186
221 214 206 202 202 206 214 216 212 210 209 210 216 229 242 252 267 274 269 271 272 272 275 276 274 272 270 277 287 288 283 280 284 285 279 272 261 252 246 242 241 242
222 212 207 205 203 206 217 220 217 219 220 220 222 226 232 243 257 260 259 264 267 266 267 272 281 283 279 281 288 295 298 299 301 301 300 297 284 269 264 264 266 266
213 204 203 203 203 211 221 220 220 226 229 233 235 233 235 247 254 248 246 251 258 265 267 269 277 280 277 278 281 284 289 294 300 301 299 301 302 290 282 286 292 291
209 202 201 202 206 216 220 217 219 226 230 236 239 237 240 252 257 251 246 243 245 254 261 260 266 271 270 271 275 276 276 277 280 284 285 286 287 285 281 283 290 295
210 204 203 206 215 224 224 219 220 225 230 232 234 239 244 251 255 253 250 246 243 250 258 256 257 263 265 265 266 268 270 269 268 269 272 273 274 276 276 276 279 278
210 207 208 212 219 225 227 225 225 229 233 231 234 241 246 250 256 258 256 251 248 256 265 262 257 259 261 261 261 261 263 265 266 265 266 266 267 269 269 268 270 269
213 213 216 221 227 232 234 236 237 239 237 232 235 244 250 252 255 258 259 255 253 260 266 262 258 257 259 261 263 261 261 264 267 266 265 264 263 264 266 265 264 263
223 223 228 235 242 243 241 242 242 241 238 235 239 250 257 257 255 256 258 257 256 259 260 258 259 261 263 267 268 266 266 270 273 272 270 267 262 261 264 265 263 261
208 208 210 217 226 229 232 238 238 235 234 234 239 248 254 256 258 258 256 255 257 259 259 258 261 263 265 267 268 267 268 270 272 271 269 266 263 261 262 263 263 262
167 173 177 179 184 190 198 208 211 210 211 217 232 248 255 265 275 272 265 263 263 263 262 261 261 266 273 274 271 270 269 267 266 265 262 260 259 259 261 262 262 262
177 183 186 190 199 205 206 205 205 205 207 217 235 248 256 264 272 275 273 270 266 260 257 261 271 284 295 298 292 279 274 274 272 268 265 262 260 260 261 261 261 261
195 201 204 210 218 221 225 226 223 221 221 226 235 242 250 257 262 266 270 271 270 266 261 262 270 282 296 307 312 300 289 289 286 279 273 269 267 267 265 264 262 261
214 213 213 222 231 236 246 254 257 259 260 260 261 264 268 272 275 277 276 276 275 273 270 268 268 273 286 300 311 314 310 305 301 295 287 279 276 272 269 269 267 262
211 213 218 230 239 247 257 264 268 271 273 274 275 276 278 280 280 281 280 279 278 277 276 274 271 272 281 294 303 309 311 311 310 306 296 285 278 273 270 270 266 260
206 215 225 233 239 246 254 261 269 276 279 281 280 281 284 286 286 287 288 290 290 287 282 278 275 275 280 288 296 301 305 309 311 308 299 287 277 271 268 266 263 254
207 219 228 230 233 241 250 258 270 282 290 292 291 290 292 294 295 299 303 305 306 304 299 290 281 278 280 286 291 294 298 302 305 305 302 296 288 281 276 271 261 248
209 215 222 227 234 242 249 258 268 277 283 286 287 288 290 292 294 297 300 302 303 304 305 303 296 291 289 288 290 292 293 296 298 301 303 303 299 291 281 270 257 247
228 228 230 236 243 249 257 264 268 271 274 277 280 282 285 288 291 295 297 299 302 303 302 301 300 301 300 296 294 293 291 290 293 296 297 296 293 283 269 260 255 252
244 244 245 249 255 261 267 269 269 272 274 277 281 285 288 292 295 297 300 304 306 305 301 297 296 298 300 299 298 293 285 283 289 291 284 278 278 275 267 260 256 256
Height
1525 1526 1527 1529 1530 1531 1532 1534 1535 1536 1536 1536 1536 1537 1536 1535 1534 1534 1534 1534 1535 1536 1537 1537 1537 1538 1538 1538 1538 1538 1538 1538 1537 1537 1537 1537 1537 1537 1537 1537 1537 1537
1525 1526 1527 1528 1529 1530 1532 1533 1535 1536 1537 1537 1537 1537 1536 1536 1535 1534 1534 1535 1536 1537 1537 1538 1538 1539 1539 1539 1539 1539 1539 1539 1539 1538 1538 1538 1538 1538 1538 1538 1538 1538
1524 1525 1527 1528 1528 1530 1531 1533 1534 1536 1537 1537 1537 1537 1536 1536 1535 1535 1535 1535 1536 1537 1538 1539 1539 1539 1540 1540 1540 1541 1540 1540 1540 1540 1540 1539 1539 1539 1539 1539 1539 1539
1523 1525 1526 1527 1528 1530 1531 1532 1534 1535 1536 1537 1537 1537 1536 1536 1536 1535 1535 1536 1537 1538 1538 1539 1539 1540 1540 1541 1541 1542 1542 1542 1541 1541 1541 1540 1540 1540 1540 1540 1540 1540
1522 1523 1525 1527 1528 1530 1531 1532 1534 1535 1536 1537 1537 1537 1537 1536 1536 1536 1536 1537 1537 1538 1539 1539 1540 1540 1540 1541 1541 1542 1542 1542 1542 1542 1542 1541 1541 1541 1541 1541 1541 1541
1522 1523 1525 1526 1528 1529 1531 1532 1534 1535 1536 1537 1537 1537 1537 1537 1537 1537 1537 1538 1538 1539 1539 1540 1540 1540 1540 1541 1541 1542 1542 1543 1543 1543 1542 1542 1542 1542 1542 1542 1542 1542
1521 1524 1525 1526 1527 1529 1530 1531 1533 1534 1535 1536 1537 1537 1537 1537 1537 1537 1538 1539 1539 1540 1540 1540 1540 1540 1540 1540 1541 1541 1542 1542 1543 1543 1543 1542 1542 1542 1542 1542 1542 1542
1522 1524 1525 1526 1526 1528 1529 1531 1532 1533 1534 1534 1535 1536 1536 1537 1537 1538 1538 1539 1540 1540 1541 1541 1541 1541 1541 1541 1541 1541 1542 1542 1542 1542 1542 1542 1542 1542 1542 1542 1541 1541
1522 1524 1526 1526 1526 1527 1529 1530 1531 1533 1533 1533 1534 1534 1535 1536 1536 1537 1538 1539 1539 1540 1540 1541 1541 1541 1541 1541 1541 1541 1541 1542 1542 1542 1542 1542 1542 1542 1542 1542 1541 1541
1519 1521 1523 1524 1524 1525 1527 1529 1530 1531 1532 1533 1533 1534 1534 1535 1535 1536 1537 1538 1539 1539 1540 1540 1540 1541 1541 1541 1541 1540 1541 1541 1541 1541 1542 1542 1542 1542 1542 1542 1541 1541
1518 1519 1521 1522 1523 1525 1526 1527 1528 1529 1530 1531 1532 1533 1533 1534 1535 1535 1535 1536 1537 1538 1538 1539 1539 1540 1540 1540 1540 1540 1540 1540 1540 1540 1541 1541 1541 1541 1541 1541 1541 1541
1518 1520 1521 1522 1524 1525 1525 1526 1527 1527 1528 1530 1531 1531 1532 1532 1533 1534 1534 1535 1535 1536 1537 1537 1537 1538 1538 1538 1539 1539 1538 1539 1539 1539 1539 1539 1540 1540 1540 1540 1540 1540
1518 1519 1520 1522 1524 1524 1525 1526 1526 1526 1527 1528 1529 1530 1530 1531 1531 1532 1533 1533 1534 1534 1535 1535 1535 1535 1536 1536 1536 1536 1536 1536 1537 1537 1538 1538 1538 1538 1539 1539 1539 1539
1517 1518 1519 1521 1522 1523 1524 1525 1525 1525 1526 1526 1527 1528 1529 1529 1529 1530 1531 1532 1532 1532 1533 1533 1533 1533 1533 1534 1534 1534 1534 1534 1535 1535 1536 1536 1536 1537 1537 1537 1537 1537
1515 1517 1519 1521 1522 1522 1523 1524 1524 1524 1525 1525 1526 1527 1527 1527 1527 1528 1528 1528 1529 1529 1530 1531 1531 1531 1531 1531 1531 1532 1532 1532 1532 1532 1533 1534 1534 1535 1535 1535 1535 1535
1515 1517 1520 1522 1522 1522 1523 1524 1523 1523 1523 1524 1525 1525 1524 1524 1525 1527 1527 1527 1528 1528 1528 1528 1528 1528 1528 1528 1528 1529 1529 1529 1529 1530 1531 1532 1532 1532 1532 1533 1533 1533
1517 1519 1520 1522 1522 1523 1523 1523 1523 1522 1522 1522 1522 1522 1522 1523 1524 1526 1527 1527 1527 1527 1526 1526 1526 1526 1526 1526 1526 1526 1526 1527 1527 1528 1528 1529 1529 1529 1530 1530 1530 1530
1518 1519 1520 1520 1521 1521 1522 1522 1522 1521 1521 1522 1521 1522 1522 1523 1524 1525 1526 1526 1526 1526 1525 1525 1524 1525 1525 1525 1525 1525 1525 1525 1526 1526 1526 1526 1526 1526 1526 1527 1527 1527
1516 1517 1518 1518 1519 1519 1520 1520 1520 1520 1521 1521 1521 1522 1522 1523 1524 1524 1524 1525 1525 1524 1524 1524 1524 1524 1524 1524 1524 1524 1524 1524 1524 1525 1524 1524 1524 1524 1524 1524 1524 1524
1515 1515 1516 1517 1517 1518 1518 1518 1519 1519 1519 1520 1520 1521 1521 1522 1522 1523 1523 1523 1523 1523 1523 1522 1522 1523 1523 1523 1523 1523 1523 1523 1523 1523 1523 1522 1522 1522 1522 1522 1522 1522
1514 1515 1515 1516 1516 1517 1517 1517 1517 1518 1518 1519 1519 1519 1520 1520 1521 1521 1521 1521 1521 1521 1521 1521 1521 1521 1521 1521 1521 1521 1521 1521 1521 1521 1520 1520 1520 1519 1519 1519 1519 1519
1513 1513 1514 1515 1515 1516 1516 1516 1516 1517 1517 1518 1518 1518 1519 1519 1519 1519 1519 1519 1519 1519 1519 1519 1519 1519 1519 1519 1519 1519 1519 1519 1519 1518 1518 1518 1517 1517 1517 1517 1517 1517
1511 1512 1513 1514 1514 1515 1515 1515 1516 1516 1516 1516 1517 1517 1517 1518 1518 1518 1518 1518 1518 1518 1517 1517 1517 1517 1518 1518 1518 1518 1517 1517 1517 1516 1516 1516 1516 1516 1516 1516 1516 1517
1511 1511 1512 1512 1513 1514 1514 1514 1515 1515 1515 1515 1516 1516 1516 1516 1516 1516 1516 1516 1516 1516 1516 1516 1516 1516 1516 1516 1516 1516 1516 1515 1515 1515 1514 1514 1514 1514 1515 1515 1516 1516
1510 1510 1511 1511 1512 1512 1513 1513 1513 1514 1514 1514 1514 1515 1515 1515 1515 1515 1515 1515 1515 1515 1515 1514 1514 1514 1514 1514 1514 1514 1514 1514 1513 1513 1513 1513 1514 1514 1514 1515 1515 1516
1509 1509 1510 1510 1510 1511 1511 1512 1512 1512 1513 1513 1513 1513 1513 1514 1514 1514 1514 1514 1514 1514 1513 1513 1513 1513 1513 1512 1512 1512 1512 1512 1512 1512 1513 1513 1513 1513 1514 1514 1514 1515